Flag for U.S.A. Weather past 2 weeks in Cedar Rapids, Iowa, U.S.A.

Now
62 °F

Clear.


Feels Like: 62 °F
Forecast: 59 / 78 °F
Wind: No wind

Location: Cedar Rapids Municipal Airport

Current Time: Jul 23, 2014 at 11:25:18 PM

Latest Report: Jul 23, 2014 at 10:52 PM


Visibility: 10 mi

Pressure: 30.13 "Hg

Humidity: 80%

Dew point: 56 °F

Location of Cedar RapidsLocation

Historic Weather in Cedar Rapids — Graph

°F

Cedar Rapids temperature yesterday

Maximum temperature yesterday: 87 °F (at 12:04 PM)
Minimum temperature yesterday: 74 °F (at 2:52 AM)
Average temperature yesterday: 78 °F

Past Weeks' High & Low Weather Summary

 TemperatureHumidityPressure
High87 °F (Jul 22, 12:04 PM)100% (Jul 12, 6:52 AM)30.19 "Hg (Jul 12, 6:52 AM)
Low49 °F (Jul 16, 5:52 AM)8% (Jul 17, 1:52 PM)29.86 "Hg (Jul 12, 6:52 PM)
Average70 °F71%30.01 "Hg
* Reported Jul 8 9:52 PM — Jul 23 9:52 PM, Cedar Rapids, Weather by CustomWeather, © 2014

Note: Actual official high and low records may vary slightly from our data, if they occured in-between our weather recording intervals... More about our weather records

Advertising

Cedar Rapids weather history for previous 24 hours

 ConditionsComfort  
Time TempWeatherWind HumidityBarometerVisibility
9:52 PM
Jul 23
67 °FClear.No wind66%30.14 "Hg10 mi
8:52 PM71 °FSunny.5 mph55%30.12 "Hg10 mi
7:52 PM74 °FSunny.7 mph52%30.12 "Hg10 mi
6:52 PM77 °FSunny.8 mph48%30.12 "Hg10 mi
5:52 PM77 °FPartly sunny.12 mph47%30.13 "Hg10 mi
4:52 PM78 °FPassing clouds.8 mph45%30.14 "Hg10 mi
3:52 PM78 °FPartly sunny.5 mph43%30.16 "Hg10 mi
2:52 PM79 °FScattered clouds.12 mph42%30.16 "Hg10 mi
1:52 PM79 °FSunny.14 mph42%30.18 "Hg10 mi
12:52 PM78 °FSunny.13 mph43%30.19 "Hg10 mi
11:52 AM77 °FSunny.10 mph47%30.18 "Hg10 mi
10:52 AM75 °FSunny.13 mph55%30.18 "Hg10 mi
9:52 AM73 °FSunny.14 mph66%30.18 "Hg10 mi
8:52 AM72 °FSunny.10 mph68%30.17 "Hg10 mi
7:52 AM69 °FSunny.13 mph73%30.14 "Hg10 mi
6:52 AM68 °FSunny.10 mph78%30.12 "Hg10 mi
5:52 AM66 °FClear.9 mph87%30.12 "Hg10 mi
4:52 AM67 °FClear.8 mph87%30.11 "Hg10 mi
3:52 AM66 °FClear.7 mph87%30.10 "Hg10 mi
2:52 AM69 °FClear.7 mph81%30.09 "Hg10 mi
12:52 AM70 °FClear.9 mph84%30.06 "Hg10 mi
11:52 PM
Jul 22
74 °FClear.10 mph76%30.04 "Hg10 mi
Weather by CustomWeather, © 2014

See weather overviewHow to use our weather pages